Weather History for Pardubice, Czech Republic

Change the Weather History Date:

Tuesday, December 4, 2012

  Actual Average Record
Temperature  
Mean Temperature 28 °F -  
Max Temperature 35 °F - - ()
Min Temperature 24 °F - - ()
Degree Days  
Heating Degree Days 36    
Moisture  
Dew Point 31 °F    
Average Humidity 96    
Maximum Humidity 100    
Minimum Humidity 81    
Precipitation  
Precipitation 0.00 in - - ()
Sea Level Pressure  
Sea Level Pressure 29.51 in    
Wind  
Wind Speed 3 mph ()    
Max Wind Speed 10 mph    
Max Gust Speed -    
Visibility 2.5 miles    
Events Rain , Snow    
T = Trace of Precipitation, MM = Missing Value Source: Averaged Metar Reports

Daily Weather History Graph

Daily Weather History Graph

Search for Another Location

Airport:

Trip Planner

Search our weather history database for the weather conditions in past years. The results will help you decide how hot, cold, wet, or windy it might be!

Date:

Astronomy

Dec. 04, 2012 Rise Set
Actual Time 7:38 AM CET 3:56 PM CET
Civil Twilight 7:00 AM CET 4:34 PM CET
Nautical Twilight 6:19 AM CET 5:15 PM CET
Astronomical Twilight 5:40 AM CET 5:54 PM CET
Moon 9:47 PM CET (12/4) 11:04 AM CET (12/4)
Length of Visible Light 9h 33m
Length of Day
8h 18m
Waning Gibbous, 72% of the Moon is Illuminated
Dec 4
Waning Gibbous
Dec 6
Last Quarter
Dec 13
New
Dec 20
First Quarter
Dec 28
Full

Hourly Weather History & Observations

Time (CET) Temp. Windchill Dew Point Humidity Pressure Visibility Wind Dir Wind Speed Gust Speed Precip Events Conditions
12:00 AM 24.8 °F 17.9 °F 23.0 °F 93% 29.74 in - East 5.8 mph - N/A   Clear
1:00 AM 26.6 °F 20.0 °F 24.8 °F 93% 29.71 in - East 5.8 mph - N/A   Clear
2:00 AM 28.4 °F 21.2 °F 24.8 °F 86% 29.65 in - East 6.9 mph - N/A   Clear
3:00 AM 28.4 °F 21.2 °F 24.8 °F 86% 29.62 in - ESE 6.9 mph - N/A   Clear
4:00 AM 30.2 °F 26.7 °F 26.6 °F 86% 29.62 in 4.3 mi South 3.5 mph - N/A Snow Light Snow
5:00 AM 30.2 °F 26.7 °F 28.4 °F 93% 29.59 in 4.3 mi South 3.5 mph - N/A Snow Light Snow
5:25 AM 30.2 °F 26.7 °F 28.4 °F 93% 29.56 in 1.9 mi SSE 3.5 mph - N/A Snow Light Snow
6:00 AM 32.0 °F - 28.4 °F 87% 29.56 in 2.5 mi Variable 1.2 mph - N/A Snow Light Snow
7:00 AM 32.0 °F - 30.2 °F 93% 29.56 in 6.2 mi ENE 2.3 mph - N/A   Overcast
9:00 AM 32.0 °F 28.7 °F 30.2 °F 93% 29.53 in 6.2 mi East 3.5 mph - N/A Snow Light Snow
10:00 AM 32.0 °F 28.7 °F 30.2 °F 93% 29.53 in 6.2 mi ESE 3.5 mph - N/A Snow Light Snow
11:00 AM 33.8 °F 30.8 °F 32.0 °F 93% 29.50 in 6.2 mi East 3.5 mph - N/A   Overcast
11:49 AM 33.8 °F 29.6 °F 32.0 °F 93% 29.50 in 3.1 mi East 4.6 mph - N/A Rain Light Rain
12:00 PM 33.8 °F 29.6 °F 32.0 °F 93% 29.50 in 2.5 mi East 4.6 mph - N/A Rain Light Rain
12:09 PM 33.8 °F 30.8 °F 33.8 °F 100% 29.50 in 2.5 mi ESE 3.5 mph - N/A Rain Light Rain
12:37 PM 33.8 °F - 33.8 °F 100% 29.50 in 1.9 mi East 1.2 mph - N/A Rain Light Rain
12:44 PM 33.8 °F - 32.0 °F 93% 29.50 in 1.2 mi Calm Calm - N/A Rain Rain
1:00 PM 32.0 °F - 32.0 °F 100% 29.50 in 0.7 mi East 2.3 mph - N/A Rain Rain
1:02 PM 32.0 °F - 30.2 °F 93% 29.47 in 0.4 mi East 2.3 mph - N/A Rain Rain
1:36 PM 32.0 °F - 32.0 °F 100% 29.47 in 0.5 mi ESE 2.3 mph - N/A Rain Rain
2:00 PM 32.0 °F - 32.0 °F 100% 29.47 in 0.7 mi East 2.3 mph - N/A Snow Light Snow
2:25 PM 32.0 °F 28.7 °F 32.0 °F 100% 29.47 in 1.2 mi East 3.5 mph - N/A Snow Light Snow
2:38 PM 32.0 °F 28.7 °F 32.0 °F 100% 29.47 in 1.2 mi East 3.5 mph - N/A   Overcast
3:00 PM 32.0 °F 28.7 °F 32.0 °F 100% 29.44 in 1.6 mi East 3.5 mph - N/A   Overcast
3:34 PM 32.0 °F - 32.0 °F 100% 29.44 in 1.6 mi ENE 2.3 mph - N/A   Overcast
4:00 PM 32.0 °F - 32.0 °F 100% 29.44 in 1.6 mi ENE 2.3 mph - N/A   Overcast
4:33 PM 33.8 °F - 32.0 °F 93% 29.47 in 0.9 mi Calm Calm - N/A Snow Snow
5:00 PM 32.0 °F - 32.0 °F 100% 29.47 in 0.9 mi Calm Calm - N/A Snow Light Snow
5:05 PM 32.0 °F - 32.0 °F 100% 29.47 in 0.6 mi Calm Calm - N/A Snow Light Snow
5:23 PM 32.0 °F - 32.0 °F 100% 29.47 in 0.9 mi West 1.2 mph - N/A Snow Light Snow
5:39 PM 32.0 °F - 32.0 °F 100% 29.47 in 0.9 mi Calm Calm - N/A Snow Light Snow
6:00 PM 32.0 °F - 32.0 °F 100% 29.47 in 1.2 mi West 1.2 mph - N/A Snow Light Snow
7:00 PM 32.0 °F - 32.0 °F 100% 29.47 in 1.2 mi West 1.2 mph - N/A   Overcast
8:00 PM 32.0 °F 28.7 °F 32.0 °F 100% 29.50 in 1.9 mi West 3.5 mph - N/A   Overcast
8:44 PM 32.0 °F - 32.0 °F 100% 29.50 in 2.5 mi Calm Calm - N/A   Mostly Cloudy
9:00 PM 32.0 °F - 32.0 °F 100% 29.50 in 2.5 mi South 1.2 mph - N/A   Mostly Cloudy
9:37 PM 32.0 °F - 32.0 °F 100% 29.47 in 6.2 mi Variable 2.3 mph - N/A   Overcast
10:00 PM 33.8 °F 28.6 °F 32.0 °F 93% 29.47 in 6.2 mi SW 5.8 mph - N/A   Overcast
11:00 PM 35.6 °F 28.0 °F 30.2 °F 81% 29.47 in - WSW 10.4 mph - N/A   Clear